Simultaneous Nadir Overpasses (SNOs) Predictions

Prediction of SNOs between GOES-16 and LANDSAT-8 Satellite Orbit:

Table of predicted SNOs for the next 14.0 days since TLE Epoch: 1/11/2020
Index Date Time (GOES-16) GOES-16 Lat,Lon LANDSAT-8 Lat,Lon Distance(km) Time Diff (sec)
1 01/11/2020 15:09:21 0.01, -75.23 -0.27, -73.90 151.41 80
2 01/12/2020 03:28:05 -0.01, -75.22 -0.85, -79.09 440.44 80
3 01/13/2020 14:57:10 0.02, -75.24 -0.92, -70.95 489.34 80
4 01/14/2020 03:15:54 -0.02, -75.23 -0.20, -76.13 102.39 80
5 01/16/2020 03:06:23 -0.02, -75.26 0.45, -73.18 236.29 80
6 01/16/2020 15:24:58 0.01, -75.28 0.69, -78.33 347.90 80
7 01/18/2020 15:12:47 0.02, -75.31 0.05, -75.38 8.91 80
8 01/20/2020 15:03:16 0.02, -75.34 -0.58, -72.43 330.98 80
9 01/21/2020 03:22:01 -0.01, -75.34 -0.47, -77.63 260.18 80
10 01/23/2020 03:12:30 -0.01, -75.38 0.16, -74.68 80.07 80




NCC Satellite Simultaneous Nadir Overpasses (SNOs) Prediction Service
